STARLINK-1047 (44752 NORAD) Tracking and Keplerian Element Data

This shows tracking and keplerian element data for the satellite.

Feedback or suggestion? Click here.




ElementValue
Catalog44752
NameSTARLINK-1047
Epoch Orbit1064
Epoch Day18.25002315
Epoch Year2020
RAAN195.8876
Inclination53.0078
Eccentricity0.0001366
Argument of Perigee88.8038
Mean Anonmoly226.8152
Mean Motion15.43440231
Decay Rate-0.00095794
L11 44752U 19074AR 20018.25002315 -.00095794 00000-0 -21254-2 0 9994
L22 44752 53.0078 195.8876 0001366 88.8038 226.8152 15.43440231 10646

Live tracking and technical data element details for STARLINK-1047 (NORAD 44752). STARLINK-1047 can be tracked NOW for your location showing map with azimuth and elevation plus other details from your city location.

Track the satellite on the map from your city or location and see movement details for azimuth, elevation, latitude, longitude, range, height, and movement on the map or in text.







IsCatalogInMostPopularTable: catalog: 44752, numindb: 13
Update: records affected: 1



GetName: 44752 STARLINK-1047

Hit Count: updated at: Sat, 18 Jan 2020 17:48:30 GMT